| time (UTC) | temp C | wind direction | speed KPH | gust KPH | rain 1hr cm | rain 24hr cm | rain mn cm | humidity % | barometer mb |
| 20260901030044 | 15 | 270 | 1.6 | 6.4 | 0.00 | 0.00 | 0.00 | 83 | 1007.8 |
| 20260901025120 | 15 | 338 | 1.6 | 6.4 | 0.00 | 0.00 | 0.00 | 84 | 1007.7 |
| 20260901024039 | 15 | 279 | 4.8 | 6.4 | 0.00 | 0.00 | 0.00 | 84 | 1007.8 |
| 20260901023031 | 15 | 326 | 4.8 | 11.3 | 0.00 | 0.00 | 0.00 | 84 | 1007.7 |
| 20260901022030 | 15 | 251 | 3.2 | 6.4 | 0.00 | 0.00 | 0.00 | 84 | 1007.7 |
| 20260901021023 | 15 | 315 | 4.8 | 6.4 | 0.00 | 0.00 | 0.00 | 84 | 1007.5 |
| 20260901020019 | 15 | 276 | 3.2 | 6.4 | 0.00 | 0.00 | 0.00 | 84 | 1007.6 |
| 20260901015017 | 15 | 243 | 3.2 | 6.4 | 0.00 | 0.00 | 0.00 | 84 | 1007.6 |
| 20260901014153 | 15 | 7 | 1.6 | 6.4 | 0.00 | 0.00 | 0.00 | 83 | 1007.7 |
| 20260901013109 | 15 | 340 | 3.2 | 6.4 | 0.00 | 0.00 | 0.00 | 83 | 1007.7 |
| 20260901012105 | 15 | 284 | 4.8 | 8.0 | 0.00 | 0.00 | 0.00 | 83 | 1007.7 |
| 20260901011109 | 15 | 321 | 4.8 | 11.3 | 0.00 | 0.00 | 0.00 | 82 | 1007.7 |
| 20260901010122 | 16 | 299 | 3.2 | 8.0 | 0.00 | 0.00 | 0.00 | 80 | 1007.8 |
| 20260901005056 | 16 | 263 | 3.2 | 9.7 | 0.00 | 0.00 | 0.00 | 78 | 1007.9 |
| 20260901004051 | 16 | 22 | 4.8 | 11.3 | 0.00 | 0.00 | 0.00 | 74 | 1008.2 |
| 20260901003049 | 16 | 265 | 4.8 | 11.3 | 0.00 | 0.00 | 0.00 | 72 | 1008.1 |
| 20260901002044 | 16 | 261 | 1.6 | 4.8 | 0.00 | 0.00 | 0.00 | 72 | 1008.1 |
| 20260901001042 | 16 | 301 | 4.8 | 6.4 | 0.00 | 0.00 | 0.00 | 73 | 1007.8 |
| 20260901000059 | 16 | 353 | 3.2 | 6.4 | 0.00 | 0.00 | 0.00 | 73 | 1007.8 |
| 20260831235037 | 16 | 58 | 0.0 | 3.2 | 0.00 | 0.00 | 0.00 | 72 | 1007.6 |
| 20260831234033 | 16 | 19 | 1.6 | 8.0 | 0.00 | 0.00 | 0.00 | 72 | 1007.7 |
| 20260831233028 | 16 | 319 | 1.6 | 4.8 | 0.00 | 0.00 | 0.00 | 71 | 1007.7 |
| 20260831232024 | 16 | 332 | 1.6 | 6.4 | 0.00 | 0.00 | 0.00 | 70 | 1007.6 |
| 20260831231020 | 16 | 338 | 1.6 | 3.2 | 0.00 | 0.00 | 0.00 | 70 | 1007.5 |
| 20260831230017 | 16 | 0 | 1.6 | 4.8 | 0.00 | 0.00 | 0.00 | 70 | 1007.4 |
| 20260831225134 | 17 | 40 | 1.6 | 3.2 | 0.00 | 0.00 | 0.00 | 70 | 1007.4 |
| 20260831224252 | 17 | 270 | 0.0 | 6.4 | 0.00 | 0.00 | 0.00 | 69 | 1007.3 |
| 20260831223107 | 17 | 320 | 1.6 | 3.2 | 0.00 | 0.00 | 0.00 | 65 | 1007.3 |
| 20260831222104 | 17 | 0.0 | 0.0 | 0.00 | 0.00 | 0.00 | 63 | 1007.3 | |
| 20260831221059 | 17 | 208 | 1.6 | 4.8 | 0.00 | 0.00 | 0.00 | 62 | 1007.3 |
| 20260831220056 | 18 | 328 | 3.2 | 6.4 | 0.00 | 0.00 | 0.00 | 62 | 1007.4 |
| 20260831215053 | 18 | 253 | 1.6 | 4.8 | 0.00 | 0.00 | 0.00 | 62 | 1007.3 |
| 20260831214056 | 18 | 12 | 3.2 | 6.4 | 0.00 | 0.00 | 0.00 | 62 | 1007.3 |
| 20260831213046 | 18 | 334 | 4.8 | 8.0 | 0.00 | 0.00 | 0.00 | 63 | 1007.2 |
| 20260831212045 | 18 | 249 | 4.8 | 12.9 | 0.00 | 0.00 | 0.00 | 66 | 1007.0 |
| 20260831211046 | 18 | 357 | 3.2 | 8.0 | 0.00 | 0.00 | 0.00 | 69 | 1007.2 |
| 20260831210038 | 18 | 5 | 3.2 | 6.4 | 0.00 | 0.00 | 0.00 | 70 | 1006.9 |
| 20260831205036 | 18 | 20 | 3.2 | 6.4 | 0.00 | 0.00 | 0.00 | 71 | 1006.7 |
| 20260831204029 | 18 | 0.0 | 0.0 | 0.00 | 0.00 | 0.00 | 72 | 1006.5 | |
| 20260831203026 | 18 | 0.0 | 0.0 | 0.00 | 0.00 | 0.00 | 71 | 1006.3 | |
| 20260831202022 | 18 | 0.0 | 0.0 | 0.00 | 0.00 | 0.00 | 72 | 1006.2 | |
| 20260831201021 | 18 | 0.0 | 1.6 | 0.00 | 0.00 | 0.00 | 72 | 1006.1 | |
| 20260831200113 | 18 | 180 | 0.0 | 4.8 | 0.00 | 0.00 | 0.00 | 72 | 1006.0 |
| 20260831195111 | 18 | 0.0 | 0.0 | 0.00 | 0.00 | 0.00 | 72 | 1006.1 | |
| 20260831194108 | 18 | 0.0 | 1.6 | 0.00 | 0.00 | 0.00 | 73 | 1006.1 | |
| 20260831193102 | 18 | 270 | 1.6 | 3.2 | 0.00 | 0.00 | 0.00 | 73 | 1006.1 |
| 20260831192100 | 17 | 0.0 | 1.6 | 0.00 | 0.00 | 0.00 | 73 | 1006.2 | |
| 20260831191057 | 18 | 0.0 | 0.0 | 0.00 | 0.00 | 0.00 | 72 | 1006.1 | |
| 20260831190113 | 18 | 0.0 | 0.0 | 0.00 | 0.00 | 0.00 | 71 | 1006.2 | |
| 20260831185048 | 18 | 0.0 | 0.0 | 0.00 | 0.00 | 0.00 | 70 | 1006.1 | |
| 20260831184043 | 19 | 0.0 | 0.0 | 0.00 | 0.00 | 0.00 | 68 | 1006.1 | |
| 20260831183042 | 20 | 0.0 | 0.0 | 0.00 | 0.00 | 0.00 | 67 | 1006.0 | |
| 20260831182037 | 20 | 0.0 | 0.0 | 0.00 | 0.00 | 0.00 | 65 | 1006.1 | |
| 20260831181034 | 20 | 293 | 0.0 | 3.2 | 0.00 | 0.00 | 0.00 | 64 | 1006.1 |
| 20260831180031 | 21 | 104 | 1.6 | 4.8 | 0.00 | 0.00 | 0.00 | 63 | 1005.9 |
| 20260831175026 | 21 | 14 | 1.6 | 4.8 | 0.00 | 0.00 | 0.00 | 63 | 1005.7 |
| 20260831174044 | 21 | 320 | 1.6 | 3.2 | 0.00 | 0.00 | 0.00 | 63 | 1005.7 |
| 20260831173021 | 21 | 54 | 1.6 | 3.2 | 0.00 | 0.00 | 0.00 | 62 | 1005.7 |
| 20260831172115 | 22 | 329 | 1.6 | 3.2 | 0.00 | 0.00 | 0.00 | 62 | 1005.6 |
| 20260831171114 | 22 | 336 | 3.2 | 8.0 | 0.00 | 0.00 | 0.00 | 60 | 1005.6 |
| 20260831170110 | 22 | 327 | 3.2 | 6.4 | 0.00 | 0.00 | 0.00 | 59 | 1005.6 |
| 20260831165126 | 22 | 315 | 0.0 | 3.2 | 0.00 | 0.00 | 0.00 | 58 | 1005.7 |
| 20260831164103 | 23 | 313 | 3.2 | 6.4 | 0.00 | 0.00 | 0.00 | 58 | 1005.7 |
| 20260831163058 | 23 | 29 | 4.8 | 9.7 | 0.00 | 0.00 | 0.00 | 57 | 1005.7 |
| 20260831162105 | 24 | 283 | 1.6 | 6.4 | 0.00 | 0.00 | 0.00 | 56 | 1005.5 |
| 20260831161111 | 25 | 27 | 1.6 | 8.0 | 0.00 | 0.00 | 0.00 | 56 | 1005.5 |
| 20260831160052 | 25 | 209 | 1.6 | 4.8 | 0.00 | 0.00 | 0.00 | 56 | 1005.5 |
| 20260831155044 | 23 | 247 | 3.2 | 6.4 | 0.00 | 0.00 | 0.00 | 57 | 1005.6 |
| 20260831154040 | 24 | 311 | 1.6 | 8.0 | 0.00 | 0.00 | 0.00 | 59 | 1005.6 |
| 20260831153037 | 24 | 118 | 3.2 | 6.4 | 0.00 | 0.00 | 0.00 | 58 | 1005.6 |
| 20260831152038 | 24 | 334 | 3.2 | 9.7 | 0.00 | 0.00 | 0.00 | 56 | 1005.6 |
| 20260831151029 | 25 | 125 | 3.2 | 8.0 | 0.00 | 0.00 | 0.00 | 54 | 1005.7 |
| 20260831150025 | 25 | 45 | 3.2 | 4.8 | 0.00 | 0.00 | 0.00 | 54 | 1005.8 |
| 20260831145022 | 25 | 245 | 3.2 | 4.8 | 0.00 | 0.00 | 0.00 | 53 | 1005.8 |
| 20260831144019 | 25 | 344 | 3.2 | 6.4 | 0.00 | 0.00 | 0.00 | 54 | 1005.9 |
| 20260831143116 | 25 | 244 | 4.8 | 8.0 | 0.00 | 0.00 | 0.00 | 53 | 1006.0 |
| 20260831142114 | 24 | 347 | 3.2 | 6.4 | 0.00 | 0.00 | 0.00 | 58 | 1005.9 |
| 20260831141108 | 23 | 232 | 3.2 | 8.0 | 0.00 | 0.00 | 0.00 | 60 | 1005.9 |
| 20260831140104 | 23 | 279 | 1.6 | 6.4 | 0.00 | 0.00 | 0.00 | 60 | 1006.0 |
| 20260831135123 | 23 | 228 | 4.8 | 9.7 | 0.00 | 0.00 | 0.00 | 59 | 1006.1 |
| 20260831134057 | 23 | 307 | 3.2 | 6.4 | 0.00 | 0.00 | 0.00 | 56 | 1006.1 |
| 20260831133113 | 25 | 340 | 6.4 | 11.3 | 0.00 | 0.00 | 0.00 | 52 | 1006.1 |
| 20260831132050 | 24 | 260 | 4.8 | 11.3 | 0.00 | 0.00 | 0.00 | 55 | 1006.2 |
| 20260831131048 | 23 | 214 | 3.2 | 8.0 | 0.00 | 0.00 | 0.00 | 57 | 1006.2 |
| 20260831130042 | 23 | 233 | 1.6 | 6.4 | 0.00 | 0.00 | 0.00 | 58 | 1006.1 |
| 20260831125039 | 22 | 270 | 0.0 | 3.2 | 0.00 | 0.00 | 0.00 | 58 | 1006.1 |
| 20260831124035 | 22 | 69 | 3.2 | 8.0 | 0.00 | 0.00 | 0.00 | 57 | 1006.2 |
| 20260831123034 | 23 | 347 | 4.8 | 9.7 | 0.00 | 0.00 | 0.00 | 55 | 1006.0 |
| 20260831122028 | 23 | 345 | 3.2 | 6.4 | 0.00 | 0.00 | 0.00 | 56 | 1006.1 |
| 20260831121025 | 23 | 290 | 3.2 | 9.7 | 0.00 | 0.00 | 0.00 | 54 | 1006.2 |
| 20260831120022 | 23 | 61 | 3.2 | 8.0 | 0.00 | 0.00 | 0.00 | 54 | 1006.2 |
| 20260831115018 | 23 | 210 | 4.8 | 9.7 | 0.00 | 0.00 | 0.00 | 54 | 1006.2 |
| 20260831114115 | 24 | 306 | 1.6 | 6.4 | 0.00 | 0.00 | 0.00 | 54 | 1006.1 |
| 20260831113111 | 25 | 279 | 4.8 | 11.3 | 0.00 | 0.00 | 0.00 | 53 | 1006.1 |
| 20260831112112 | 23 | 270 | 0.0 | 6.4 | 0.00 | 0.00 | 0.00 | 60 | 1006.2 |
| 20260831111105 | 22 | 305 | 3.2 | 4.8 | 0.00 | 0.00 | 0.00 | 62 | 1006.2 |
| 20260831110059 | 22 | 145 | 1.6 | 3.2 | 0.00 | 0.00 | 0.00 | 63 | 1006.4 |
| 20260831105058 | 21 | 276 | 3.2 | 6.4 | 0.00 | 0.00 | 0.00 | 63 | 1006.4 |
| 20260831104104 | 21 | 318 | 4.8 | 8.0 | 0.00 | 0.00 | 0.00 | 62 | 1006.4 |
| 20260831103050 | 22 | 103 | 1.6 | 6.4 | 0.00 | 0.00 | 0.00 | 63 | 1006.4 |
| 20260831102107 | 22 | 24 | 1.6 | 6.4 | 0.00 | 0.00 | 0.00 | 64 | 1006.3 |
| 20260831101042 | 21 | 19 | 4.8 | 8.0 | 0.00 | 0.00 | 0.00 | 65 | 1006.3 |
| 20260831100059 | 21 | 34 | 1.6 | 8.0 | 0.00 | 0.00 | 0.00 | 65 | 1006.3 |
| 20260831095035 | 21 | 285 | 1.6 | 6.4 | 0.00 | 0.00 | 0.00 | 66 | 1006.4 |
| 20260831094031 | 22 | 17 | 3.2 | 6.4 | 0.00 | 0.00 | 0.00 | 65 | 1006.4 |
| 20260831093028 | 22 | 70 | 1.6 | 6.4 | 0.00 | 0.00 | 0.00 | 62 | 1006.4 |
| 20260831092025 | 22 | 355 | 1.6 | 6.4 | 0.00 | 0.00 | 0.00 | 64 | 1006.3 |
| 20260831091023 | 22 | 253 | 1.6 | 3.2 | 0.00 | 0.00 | 0.00 | 62 | 1005.9 |
| 20260831090020 | 22 | 338 | 0.0 | 3.2 | 0.00 | 0.00 | 0.00 | 70 | 1006.0 |
| 20260831085115 | 21 | 270 | 0.0 | 3.2 | 0.00 | 0.00 | 0.00 | 71 | 1006.1 |
| 20260831084111 | 21 | 0.0 | 0.0 | 0.00 | 0.00 | 0.00 | 73 | 1005.8 | |
| 20260831083109 | 20 | 0.0 | 0.0 | 0.00 | 0.00 | 0.00 | 73 | 1005.5 | |
| 20260831082103 | 20 | 0.0 | 0.0 | 0.00 | 0.00 | 0.00 | 74 | 1005.6 | |
| 20260831081101 | 20 | 0.0 | 0.0 | 0.00 | 0.00 | 0.00 | 74 | 1005.6 | |
| 20260831080056 | 20 | 0.0 | 0.0 | 0.00 | 0.00 | 0.00 | 74 | 1005.8 | |
| 20260831075052 | 20 | 0.0 | 0.0 | 0.00 | 0.00 | 0.00 | 75 | 1005.9 | |
| 20260831074051 | 19 | 0.0 | 0.0 | 0.00 | 0.00 | 0.00 | 74 | 1005.9 | |
| 20260831073046 | 19 | 0.0 | 0.0 | 0.00 | 0.00 | 0.00 | 75 | 1006.0 | |
| 20260831072042 | 19 | 0.0 | 0.0 | 0.00 | 0.00 | 0.00 | 75 | 1006.1 | |
| 20260831071042 | 19 | 0.0 | 0.0 | 0.00 | 0.00 | 0.00 | 75 | 1006.1 | |
| 20260831070035 | 19 | 0.0 | 0.0 | 0.00 | 0.00 | 0.00 | 76 | 1006.1 | |
| 20260831065033 | 19 | 0.0 | 0.0 | 0.00 | 0.00 | 0.00 | 77 | 1006.1 | |
| 20260831064031 | 18 | 0.0 | 0.0 | 0.00 | 0.00 | 0.00 | 78 | 1006.0 | |
| 20260831063044 | 18 | 0.0 | 0.0 | 0.00 | 0.00 | 0.00 | 78 | 1006.1 | |
| 20260831062022 | 18 | 0.0 | 0.0 | 0.00 | 0.00 | 0.00 | 76 | 1006.0 | |
| 20260831061017 | 18 | 0.0 | 0.0 | 0.00 | 0.00 | 0.00 | 75 | 1005.9 | |
| 20260831060113 | 17 | 0.0 | 0.0 | 0.00 | 0.00 | 0.00 | 75 | 1006.0 | |
| 20260831055110 | 18 | 0.0 | 0.0 | 0.00 | 0.00 | 0.00 | 74 | 1006.1 | |
| 20260831054106 | 18 | 0.0 | 0.0 | 0.00 | 0.00 | 0.00 | 77 | 1006.1 | |
| 20260831053123 | 18 | 0.0 | 0.0 | 0.00 | 0.00 | 0.00 | 82 | 1006.2 | |
| 20260831052100 | 18 | 68 | 0.0 | 3.2 | 0.00 | 0.00 | 0.00 | 91 | 1006.0 |
| 20260831051115 | 17 | 0.0 | 0.0 | 0.00 | 0.00 | 0.00 | 94 | 1006.2 | |
| 20260831050052 | 15 | 0.0 | 0.0 | 0.00 | 0.00 | 0.00 | 92 | 1006.1 | |
| 20260831045048 | 13 | 0.0 | 0.0 | 0.00 | 0.00 | 0.00 | 91 | 1006.3 | |
| 20260831044045 | 13 | 0.0 | 0.0 | 0.00 | 0.00 | 0.00 | 91 | 1006.4 | |
| 20260831043044 | 13 | 0.0 | 0.0 | 0.00 | 0.00 | 0.00 | 91 | 1006.3 | |
| 20260831042038 | 13 | 0.0 | 0.0 | 0.00 | 0.00 | 0.00 | 90 | 1006.4 | |
| 20260831041035 | 13 | 0.0 | 0.0 | 0.00 | 0.00 | 0.00 | 90 | 1006.3 | |
| 20260831040031 | 13 | 0.0 | 0.0 | 0.00 | 0.00 | 0.00 | 90 | 1006.3 | |
| 20260831035028 | 13 | 0.0 | 0.0 | 0.00 | 0.00 | 0.00 | 90 | 1006.5 | |
| 20260831034045 | 13 | 0.0 | 0.0 | 0.00 | 0.00 | 0.00 | 90 | 1006.5 | |
| 20260831033022 | 13 | 0.0 | 0.0 | 0.00 | 0.00 | 0.00 | 89 | 1006.6 | |
| 20260831032018 | 13 | 0.0 | 0.0 | 0.00 | 0.00 | 0.00 | 89 | 1006.7 | |
| 20260831031114 | 13 | 0.0 | 0.0 | 0.00 | 0.00 | 0.00 | 89 | 1006.7 |